Terminal Aerodrome Forecast
Issued by NWS Kansas City/Pleasant Hill, MO

Home | Current Version | Previous Version | Text Only | Print | Product List | Glossary On
Versions: 1 2 3 4 5 6 7 8 9 10 11 12 13 14 15 16 17 18 19
000
FTUS43 KEAX 211100
TAFMCI
TAF
KMCI 211120Z 2112/2212 19011KT 6SM BR OVC022
     FM211300 18012KT P6SM OVC015
     FM220300 17016G23KT P6SM VCSH OVC015
     FM220800 17017G24KT 5SM -RA BR OVC012=

USA.gov is the U.S. government's official web portal to all federal, state and local government web resources and services.